Location: 5810 Zion Rd, Cleves, OH 45002, USA
(39.1922°N, 84.7113°W)
Time: 05:48:16
(UTC-05:00)

N. Korean satellite - Visible Passes

Search period start: 27 February 2021 00:00
Search period end: 09 March 2021 00:00
Orbit: 451 x 503 km, 97.2° (Epoch: 26 February)

Date Brightness Start Highest point End Pass type
(mag) Time Alt. Az. Time Alt. Az. Time Alt. Az.
27 Feb 9.0 05:24:46 10° NE 05:27:39 24° E 05:30:34 10° SSE visible
28 Feb 10.0 04:59:47 10° ENE 05:00:46 11° E 05:01:46 10° ESE visible
28 Feb 7.0 06:30:55 10° N 06:34:13 38° WNW 06:37:33 10° SW visible
01 Mar 6.5 06:04:01 10° NNE 06:07:33 87° E 06:11:07 10° SSW visible
02 Mar 8.2 05:37:30 10° NNE 05:40:47 35° E 05:44:06 10° SSE visible
03 Mar 9.6 05:11:37 10° NE 05:13:56 16° E 05:16:15 10° SE visible
04 Mar 6.5 06:17:05 10° N 06:20:36 60° WNW 06:24:07 10° SSW visible
05 Mar 7.3 05:50:21 10° NNE 05:53:51 55° E 05:57:24 10° S visible
06 Mar 9.0 05:24:05 10° NE 05:27:02 24° E 05:30:00 10° SSE visible
07 Mar 10.0 04:58:58 10° ENE 05:00:06 11° E 05:01:14 10° ESE visible
07 Mar 7.0 06:30:12 10° N 06:33:33 39° WNW 06:36:56 10° SW visible
08 Mar 6.6 06:03:15 10° NNE 06:06:51 86° E 06:10:29 10° SSW visible
